Tracking 19575 objects as of 19-Feb-2019
HD Live streaming from Space Station
objects crossing your sky now

METEOR 2-5 DEB

Track METEOR 2-5 DEB now!
10-day predictions


NORAD ID: 38273
Int'l Code: 1979-095BT
Perigee: 831.9 km
Apogee: 840.4 km
Inclination: 81.2 °
Period: 101.5 minutes
Semi major axis: 7207 km
RCS: 0.0001 m2 (small)
Launch date: October 31, 1979
Source: Commonwealth of Independent States (former USSR) (CIS)
Launch site: PLESETSK MISSILE AND SPACE COMPLEX (PKMTR)

Note: This is SATELLITE DEBRIS
aabbcc
Your satellite tracking list
Your tracking list is empty




NASA's NSSDC Master Catalog

Two Line Element Set (TLE):
1 38273U 79095BT  19050.31379942  .00000726  00000-0  34277-3 0  9997
2 38273  81.2122 281.2080 0005889 208.7800 151.3052 14.18912708421619
Source of the keplerian elements: AFSPC